Location: Bremen
(53.0793°N, 8.8017°E)
Time: 00:51:05
(UTC+02:00)

ISS - Visible Passes

Search period start: 28 July 2021 00:00
Search period end: 07 August 2021 00:00
Orbit: 419 x 421 km, 51.6° (Epoch: 27 July)

Date Brightness Start Highest point End Pass type
(mag) Time Alt. Az. Time Alt. Az. Time Alt. Az.
28 Jul -2.4 22:22:55 10° W 22:25:52 27° SSW 22:28:40 11° SSE visible
29 Jul -1.2 23:14:13 10° SW 23:14:46 10° SW 23:15:20 10° SSW visible
30 Jul -1.5 22:25:44 10° WSW 22:27:44 15° SW 22:29:43 10° S visible
